Terminal Aerodrome Forecast
Issued by NWS

Home | Current Version | Previous Version | Graphics & Text | Print | Product List | Glossary On
Versions: 1 2 3 4 5 6 7 8 9 10 11 12 13
000
FTUS43 KTOP 171100
TAFFOE
TAF
KFOE 171123Z 1712/1812 31007KT P6SM SCT250
     FM171500 32013G20KT P6SM SCT035
     FM172300 34007KT P6SM SKC=

USA.gov is the U.S. government's official web portal to all federal, state and local government web resources and services.